Location: Black Swamp Observatory
(41.3920°N, 84.1250°W)
Time: 14:41:38
(UTC-04:00)

BlueWalker 3 - Visible Passes

Search period start: 24 March 2023 00:00
Search period end: 03 April 2023 00:00
Orbit: 497 x 515 km, 53.2° (Epoch: 24 March)

Date Brightness Start Highest point End Pass type
(mag) Time Alt. Az. Time Alt. Az. Time Alt. Az.
24 Mar 3.5 05:10:15 30° ESE 05:10:15 30° ESE 05:12:23 10° ESE visible
24 Mar 3.4 06:45:04 14° W 06:46:50 18° SW 06:49:30 10° S visible
25 Mar 4.8 04:52:34 11° ESE 04:52:34 11° ESE 04:52:44 10° ESE visible
25 Mar 3.5 06:27:24 17° SW 06:27:24 17° SW 06:29:43 10° S visible
25 Mar 3.5 21:48:12 10° SSW 21:49:58 24° SSW 21:49:58 24° SSW visible
26 Mar 2.0 21:28:27 10° SSW 21:32:15 53° SE 21:32:35 51° ESE visible
27 Mar 2.0 21:08:40 10° SW 21:12:29 56° SE 21:14:52 21° ENE visible
27 Mar 4.4 22:47:52 10° W 22:49:41 21° WNW 22:49:41 21° WNW visible
28 Mar 2.0 20:48:51 10° SW 20:52:41 58° SE 20:56:31 10° ENE visible
28 Mar 3.9 22:28:07 10° W 22:31:29 27° NNW 22:31:38 27° NNW visible
29 Mar 2.0 20:29:00 10° SW 20:32:51 61° SE 20:36:42 10° ENE visible
29 Mar 3.9 22:08:20 10° W 22:11:40 26° NNW 22:13:17 20° NNE visible
30 Mar 4.0 21:48:30 10° W 21:51:49 26° NNW 21:54:42 12° NNE visible
30 Mar 5.3 23:29:16 10° NW 23:29:27 11° NW 23:29:27 11° NW visible
31 Mar 4.0 21:28:39 10° W 21:31:56 25° NNW 21:35:13 10° NE visible
31 Mar 5.0 23:09:23 10° NW 23:10:40 13° NNW 23:10:40 13° NNW visible
01 Apr 4.1 21:08:45 10° W 21:12:01 25° NNW 21:15:17 10° NE visible
01 Apr 4.7 22:49:29 10° NW 22:51:40 14° N 22:51:42 14° N visible
02 Apr 4.1 20:48:50 10° W 20:52:04 24° NNW 20:55:19 10° NNE visible
02 Apr 4.6 22:29:33 10° NW 22:31:43 14° N 22:32:38 13° NNE visible
